Regional Weather Roundup
Issued by NWS

Home | Current Version | Previous Version | Text Only | Print | Product List | Glossary On
Versions: 1 2 3 4 5 6 7 8 9 10 11 12 13 14 15 16 17 18 19 20 21 22 23 24 25 26 27 28 29 30 31 32 33 34 35 36 37 38 39 40 41 42 43 44 45 46 47 48 49 50
000
ASUS43 KFSD 140010
RWRSD

WEATHER ROUNDUP FOR SOUTH DAKOTA
NATIONAL WEATHER SERVICE SIOUX FALLS SD
600 PM CST WED DEC 13 2017

NOTE: "FAIR" INDICATES FEW OR NO CLOUDS BELOW 12,000 FEET WITH NO
SIGNIFICANT WEATHER AND/OR OBSTRUCTIONS TO VISIBILITY.


SDZ001>005-009-010-012>017-140100-
NORTHWEST AND NORTH CENTRAL SOUTH DAKOTA

CITY           SKY/WX    TMP DP  RH WIND       PRES   REMARKS
BUFFALO          N/A     37  25  61 NW16      29.98F
FAITH            N/A     38  23  55 NW20      30.00R
MOBRIDGE       CLOUDY    37  26  64 N18G24    29.94S
$$

SDZ012>016-024>037-041>051-057-063-072>074-140100-
SOUTHWEST AND SOUTH CENTRAL SOUTH DAKOTA

CITY           SKY/WX    TMP DP  RH WIND       PRES   REMARKS
RAPID CTY ARPT CLOUDY    40  24  53 NW22G30   30.03S
PIERRE         CLOUDY    34  27  75 N14       29.97S WCI  25
CUSTER         CLOUDY    33  17  51 VRB6      30.02R WCI  28
ELLSWORTH AFB  CLOUDY    40  24  52 NW22      30.02F
PHILIP         CLOUDY    42  21  43 NW15      30.02R
PINE RIDGE     CLOUDY    41  24  51 N14G22    30.04R
SPEARFISH      FAIR      37  23  56 NW16      30.07S
WINNER         FAIR      41  26  55 N14       29.97R
$$

SDZ004>011-016>023-039-040-140100-
NORTHEAST SOUTH DAKOTA

CITY           SKY/WX    TMP DP  RH WIND       PRES   REMARKS
ABERDEEN       CLOUDY    35  24  64 N18       29.95R WCI  24
WATERTOWN      CLOUDY    30  28  92 N18G24    29.87R WCI  18
BROOKINGS      FLURRIES  30  29  96 N12       29.88R WCI  20
SISSETON         N/A     27  25  92 N15       29.91R WCI  15
$$

SDZ017-020-022-023-036>040-048>070-140100-
SOUTHEAST SOUTH DAKOTA

CITY           SKY/WX    TMP DP  RH WIND       PRES   REMARKS
SIOUX FALLS    CLOUDY    35  30  82 N15       29.90R WCI  25
HURON          CLOUDY    36  26  67 NW14G22   29.94R
CHAMBERLAIN    PTCLDY    37  29  72 N15G22    29.97R
MITCHELL       CLOUDY    38  26  62 NW18G28   29.95R
YANKTON        CLOUDY    38  25  59 NW22G33   29.93R
$$

ABBREVIATIONS USED IN REMARKS
   TC - TEMPERATURE IN CELSIUS
  WCI - WIND CHILL INDEX
   HX - HEAT INDEX
  VSB - VISIBILITY




USA.gov is the U.S. government's official web portal to all federal, state and local government web resources and services.